Location: Sebastopol
(38.4021°N, 122.8239°W)
Time: 14:22:26
(UTC+00:00)

CZ-4B R/B - Pass Details

Date: 29 October 2020
Orbit: 388 x 461 km, 97.6° (Epoch: 30 November)

Event Time Altitude Azimuth Distance (km) Brightness Sun altitude
Rises 12:03:36 0° 131° (SE) 2,485 5.7 -30.2°
Reaches altitude 10° 12:06:11 10° 109° (ESE) 1,611 5.0 -29.7°
Maximum altitude 12:08:25 16° 69° (ENE) 1,268 4.4 -29.2°
Drops below altitude 10° 12:10:41 10° 28° (NNE) 1,616 4.6 -28.8°
Enters shadow 12:10:53 - 26° (NNE) 1,674 4.6 -28.8°
